This demonstration page uses our WeatherBlox Daily Observations layout. Learn more.

Left ArrowRight Arrow

39.08367, -84.50855

Hourly Observations for August 5, 2021

Temp ( °F °C ) Dew Point ( °F °C ) Humidity (%) Winds ( mph kmh ) Pressure ( in mb ) Visibility ( mi km ) Precip ( " mm )
12:53 am 00:53 Clear 63 17.2 61 16.1 93 93 N N/A 30.11 1020 10 16 N/A
1:53 am 01:53 Clear 63 17.2 60 15.6 90 90 N N/A 30.10 1019 10 16 N/A
2:53 am 02:53 Clear 61 16.1 60 15.6 97 97 N N/A 30.09 1019 8 13 N/A
3:53 am 03:53 Clear with Mist and Fog 60 15.6 59 15 96 96 N N/A 30.09 1019 6 10 N/A
4:53 am 04:53 Clear 59 15 58 14.4 96 96 N N/A 30.10 1019 7 11 N/A
5:29 am 05:29 Clear with Mist and Fog 59 15 58 14.4 96 96 N N/A 30.11 1020 2 3 N/A
5:37 am 05:37 Clear with Mist and Fog 60 15.6 59 15 96 96 N N/A 30.11 1020 3 5 N/A
5:53 am 05:53 Clear with Mist and Fog 59 15 58 14.4 96 96 N N/A 30.11 1020 6 10 N/A
6:53 am 06:53 Mostly Cloudy 60 15.6 59 15 96 96 N N/A 30.12 1020 10 16 N/A
7:53 am 07:53 Sunny 63 17.2 60 15.6 90 90 N N/A 30.14 1021 10 16 N/A
8:53 am 08:53 Mostly Sunny 67 19.4 61 16.1 81 81 NE 3 6 30.14 1021 10 16 N/A
9:53 am 09:53 Mostly Sunny 73 22.8 62 16.7 69 69 N N/A 30.14 1021 10 16 N/A
10:53 am 10:53 Sunny 78 25.6 64 17.8 62 62 N N/A 30.14 1021 10 16 N/A
11:53 am 11:53 Partly Cloudy 81 27.2 64 17.8 57 57 N N/A 30.13 1020 10 16 N/A
12:53 pm 12:53 Partly Cloudy 83 28.3 63 17.2 51 51 S 8 13 30.12 1020 10 16 N/A
1:53 pm 13:53 Mostly Sunny 85 29.4 62 16.7 46 46 ENE 5 7 30.10 1019 10 16 N/A
2:53 pm 14:53 Partly Cloudy 84 28.9 63 17.2 49 49 VRB 3 6 30.08 1019 10 16 N/A
3:53 pm 15:53 Partly Cloudy 84 28.9 61 16.1 46 46 VRB 6 9 30.07 1018 10 16 N/A
4:53 pm 16:53 Partly Cloudy 83 28.3 62 16.7 49 49 SE 8 13 30.06 1018 10 16 N/A
5:53 pm 17:53 Sunny 84 28.9 62 16.7 48 48 SSE 7 11 30.06 1018 10 16 N/A
6:53 pm 18:53 Mostly Sunny 83 28.3 62 16.7 49 49 S 6 9 30.06 1018 10 16 N/A
7:53 pm 19:53 Sunny 81 27.2 64 17.8 57 57 SSE 5 7 30.05 1018 10 16 N/A
8:53 pm 20:53 Clear 75 23.9 66 18.9 74 74 N N/A 30.06 1018 10 16 N/A
9:53 pm 21:53 Clear 71 21.7 65 18.3 81 81 N N/A 30.08 1019 10 16 N/A
10:53 pm 22:53 Clear 68 20 64 17.8 87 87 N N/A 30.09 1019 10 16 N/A
11:53 pm 23:53 Clear 68 20 65 18.3 90 90 N N/A 30.09 1019 10 16 N/A

Powered by AerisWeather